TimeCDT,TemperatureF,Dew PointF,Humidity,Sea Level PressureIn,VisibilityMPH,Wind Direction,Wind SpeedMPH,Gust SpeedMPH,PrecipitationIn,Events,Conditions,WindDirDegrees,DateUTC
12:15 AM,75.6,70.7,85,30.19,10.0,Calm,Calm,-,N/A,,Clear,0,2013-07-18 05:15:00
12:35 AM,75.6,70.3,84,30.18,10.0,Calm,Calm,-,N/A,,Clear,0,2013-07-18 05:35:00
12:55 AM,74.8,70.0,85,30.18,10.0,Calm,Calm,-,N/A,,Clear,0,2013-07-18 05:55:00
1:15 AM,73.4,68.9,86,30.19,10.0,Calm,Calm,-,N/A,,Clear,0,2013-07-18 06:15:00
1:35 AM,73.0,68.5,86,30.18,10.0,Calm,Calm,-,N/A,,Clear,0,2013-07-18 06:35:00
1:55 AM,73.0,68.9,87,30.18,10.0,Calm,Calm,-,N/A,,Clear,0,2013-07-18 06:55:00
2:15 AM,73.0,68.9,87,30.18,10.0,Calm,Calm,-,N/A,,Clear,0,2013-07-18 07:15:00
2:35 AM,72.5,68.9,88,30.18,10.0,Calm,Calm,-,N/A,,Clear,0,2013-07-18 07:35:00
2:55 AM,70.7,67.3,89,30.18,10.0,Calm,Calm,-,N/A,,Clear,0,2013-07-18 07:55:00
3:15 AM,71.6,68.2,89,30.17,10.0,Calm,Calm,-,N/A,,Clear,0,2013-07-18 08:15:00
3:35 AM,70.9,67.6,89,30.16,10.0,Calm,Calm,-,N/A,,Clear,0,2013-07-18 08:35:00
3:55 AM,71.6,68.2,89,30.16,10.0,Calm,Calm,-,N/A,,Clear,0,2013-07-18 08:55:00
4:15 AM,70.7,67.6,90,30.16,10.0,Calm,Calm,-,N/A,,Clear,0,2013-07-18 09:15:00
4:35 AM,70.7,67.5,89,30.16,10.0,Calm,Calm,-,N/A,,Clear,0,2013-07-18 09:35:00
4:55 AM,70.7,67.5,89,30.16,10.0,Calm,Calm,-,N/A,,Clear,0,2013-07-18 09:55:00
5:15 AM,70.7,67.6,90,30.16,10.0,Calm,Calm,-,N/A,,Clear,0,2013-07-18 10:15:00
5:35 AM,70.7,67.6,90,30.17,10.0,Calm,Calm,-,N/A,,Clear,0,2013-07-18 10:35:00
5:55 AM,70.7,67.6,90,30.17,10.0,Calm,Calm,-,N/A,,Clear,0,2013-07-18 10:55:00
6:15 AM,70.7,67.6,90,30.17,10.0,Calm,Calm,-,N/A,,Clear,0,2013-07-18 11:15:00
6:35 AM,70.7,68.0,91,30.17,10.0,Calm,Calm,-,N/A,,Clear,0,2013-07-18 11:35:00
6:55 AM,70.7,68.0,91,30.18,10.0,Calm,Calm,-,N/A,,Clear,0,2013-07-18 11:55:00
7:15 AM,72.5,69.4,90,30.18,10.0,Calm,Calm,-,N/A,,Clear,0,2013-07-18 12:15:00
7:35 AM,73.0,69.3,88,30.18,10.0,Calm,Calm,-,N/A,,Clear,0,2013-07-18 12:35:00
7:55 AM,75.6,70.2,83,30.18,10.0,Calm,Calm,-,N/A,,Clear,0,2013-07-18 12:55:00
8:15 AM,77.0,70.0,79,30.18,10.0,Calm,Calm,-,N/A,,Clear,0,2013-07-18 13:15:00
8:35 AM,78.6,70.2,75,30.18,10.0,Calm,Calm,-,N/A,,Clear,0,2013-07-18 13:35:00
8:55 AM,83.3,72.5,70,30.19,10.0,Calm,Calm,-,N/A,,Clear,0,2013-07-18 13:55:00
9:15 AM,85.6,72.9,65,30.19,10.0,Calm,Calm,-,N/A,,Clear,0,2013-07-18 14:15:00
9:35 AM,85.6,70.3,60,30.19,10.0,Calm,Calm,-,N/A,,Clear,0,2013-07-18 14:35:00
9:55 AM,86.2,68.7,56,30.19,10.0,Calm,Calm,-,N/A,,Clear,0,2013-07-18 14:55:00
10:15 AM,87.3,68.5,54,30.19,10.0,Calm,Calm,-,N/A,,Clear,0,2013-07-18 15:15:00
10:35 AM,90.1,70.7,53,30.19,10.0,South,3.5,-,N/A,,Clear,180,2013-07-18 15:35:00
10:55 AM,88.2,68.4,52,30.19,10.0,NNW,3.5,-,N/A,,Scattered Clouds,340,2013-07-18 15:55:00
11:15 AM,90.7,67.6,47,30.18,10.0,NE,4.6,-,N/A,,Scattered Clouds,40,2013-07-18 16:15:00
11:35 AM,90.7,66.9,45,30.18,10.0,East,6.9,-,N/A,,Scattered Clouds,90,2013-07-18 16:35:00
11:55 AM,90.7,66.9,45,30.17,10.0,East,4.6,-,N/A,,Clear,100,2013-07-18 16:55:00
12:15 PM,90.7,68.2,47,30.17,10.0,SSE,3.5,-,N/A,,Scattered Clouds,150,2013-07-18 17:15:00
12:35 PM,91.6,66.2,43,30.16,10.0,ENE,5.8,-,N/A,,Scattered Clouds,70,2013-07-18 17:35:00
12:55 PM,93.2,65.1,39,30.15,10.0,East,5.8,-,N/A,,Clear,80,2013-07-18 17:55:00
1:15 PM,92.3,66.0,42,30.14,10.0,East,9.2,-,N/A,,Scattered Clouds,90,2013-07-18 18:15:00
1:35 PM,93.2,64.8,39,30.13,10.0,North,3.5,-,N/A,,Scattered Clouds,10,2013-07-18 18:35:00
1:55 PM,93.2,65.1,39,30.11,10.0,SW,4.6,-,N/A,,Clear,230,2013-07-18 18:55:00
2:15 PM,93.2,65.3,40,30.11,10.0,Calm,Calm,-,N/A,,Scattered Clouds,0,2013-07-18 19:15:00
2:35 PM,93.2,63.9,38,30.09,10.0,Calm,Calm,-,N/A,,Scattered Clouds,0,2013-07-18 19:35:00
2:55 PM,95.0,64.8,37,30.08,10.0,East,6.9,-,N/A,,Mostly Cloudy,100,2013-07-18 19:55:00
3:15 PM,93.2,63.1,37,30.06,10.0,SW,3.5,-,N/A,,Clear,230,2013-07-18 20:15:00
3:35 PM,95.9,63.5,34,30.06,10.0,SE,3.5,-,N/A,,Scattered Clouds,140,2013-07-18 20:35:00
3:55 PM,93.2,64.0,38,30.05,10.0,Calm,Calm,-,N/A,,Scattered Clouds,0,2013-07-18 20:55:00
4:15 PM,93.2,64.2,38,30.04,10.0,Calm,Calm,-,N/A,,Scattered Clouds,0,2013-07-18 21:15:00
5:15 PM,93.2,62.6,36,30.02,10.0,NW,3.5,-,N/A,,Scattered Clouds,310,2013-07-18 22:15:00
5:35 PM,93.4,63.0,36,30.02,10.0,West,5.8,-,N/A,,Scattered Clouds,270,2013-07-18 22:35:00
5:55 PM,93.2,67.3,42,30.02,10.0,WSW,6.9,-,N/A,,Scattered Clouds,250,2013-07-18 22:55:00
6:15 PM,93.2,67.3,42,30.02,10.0,SW,6.9,-,N/A,,Scattered Clouds,230,2013-07-18 23:15:00
6:35 PM,88.3,66.6,48,30.03,10.0,ESE,9.2,-,N/A,,Clear,120,2013-07-18 23:35:00
6:55 PM,84.6,74.5,72,30.04,4.0,Calm,Calm,-,0.01,,Mostly Cloudy,0,2013-07-18 23:55:00
7:15 PM,79.2,72.7,80,30.03,10.0,Calm,Calm,-,N/A,,Mostly Cloudy,0,2013-07-19 00:15:00
7:35 PM,79.0,75.4,89,30.03,7.0,Calm,Calm,-,N/A,,Scattered Clouds,0,2013-07-19 00:35:00
7:55 PM,80.2,72.0,76,30.04,10.0,NNW,6.9,-,N/A,,Scattered Clouds,340,2013-07-19 00:55:00
8:15 PM,79.5,68.9,70,30.05,10.0,NNW,6.9,-,N/A,,Clear,340,2013-07-19 01:15:00
8:35 PM,78.4,69.1,73,30.06,10.0,SSE,5.8,-,N/A,,Clear,160,2013-07-19 01:35:00
8:55 PM,78.1,66.9,68,30.08,10.0,SSE,4.6,-,N/A,,Clear,150,2013-07-19 01:55:00
9:15 PM,77.0,66.2,69,30.09,10.0,SE,3.5,17.3,N/A,,Mostly Cloudy,130,2013-07-19 02:15:00
9:35 PM,75.6,67.1,75,30.11,10.0,SE,6.9,-,N/A,,Mostly Cloudy,140,2013-07-19 02:35:00
9:55 PM,75.6,68.9,80,30.10,10.0,ESE,4.6,-,N/A,,Scattered Clouds,120,2013-07-19 02:55:00
10:15 PM,73.0,68.0,84,30.12,10.0,ESE,4.6,-,N/A,,Scattered Clouds,110,2013-07-19 03:15:00
10:35 PM,73.0,68.9,87,30.13,10.0,SE,3.5,-,N/A,,Mostly Cloudy,130,2013-07-19 03:35:00
10:55 PM,71.2,67.6,88,30.12,10.0,SSE,4.6,-,0.01,,Mostly Cloudy,150,2013-07-19 03:55:00
11:15 PM,70.7,67.3,89,30.12,10.0,South,4.6,-,0.01,,Scattered Clouds,170,2013-07-19 04:15:00
11:35 PM,70.7,67.5,89,30.11,10.0,SSW,3.5,-,0.01,,Clear,200,2013-07-19 04:35:00
11:55 PM,70.7,67.3,89,30.09,10.0,SSW,5.8,-,0.01,,Clear,200,2013-07-19 04:55:00